Moline, IL

12:19 PM CDT on April 24, 2017 (GMT -0500)
Quad-City International

Weather History for KMLI - November, 2014

Change the Weather History Date:

Sunday, November 9, 2014

  Actual Average Record
Temperature  
Mean Temperature 44 °F 44 °F  
Max Temperature 56 °F 53 °F 77 °F (1999)
Min Temperature 32 °F 34 °F 10 °F (1991)
Degree Days  
Heating Degree Days 21 21  
Month to date heating degree days 199 175  
Since 1 July heating degree days 729 657  
Cooling Degree Days 0 0  
Month to date cooling degree days 0 0  
Year to date cooling degree days 839 1003  
Moisture  
Dew Point 32 °F    
Average Humidity 59    
Maximum Humidity 76    
Minimum Humidity 41    
Precipitation  
Precipitation 0.00 in 0.08 in 1.57 in (1911)
Month to date precipitation 0.27 0.80  
Year to date precipitation 37.27 34.02  
Snow  
Snow 0.00 in 0.00 in - ()
Month to date snowfall 0.0 0.1  
Since 1 July snowfall T 0.1  
Since 1 September snowfall T 0.1  
Snow Depth 0.00 in    
Sea Level Pressure  
Sea Level Pressure 29.83 in    
Wind  
Wind Speed 7 mph (SSW)    
Max Wind Speed 21 mph    
Max Gust Speed 24 mph    
Visibility 9 miles    
Events      
T = Trace of Precipitation, MM = Missing Value Source: NWS Daily Summary

Daily Weather History Graph

Daily Weather History Graph

Search for Another Location

Airport or City:

Trip Planner

Search our weather history database for the weather conditions in past years. The results will help you decide how hot, cold, wet, or windy it might be!

Date:

Astronomy

Nov. 09, 2014 Rise Set
Actual Time 6:43 AM CST 4:47 PM CST
Civil Twilight 6:14 AM CST 5:17 PM CST
Nautical Twilight 5:40 AM CST 5:50 PM CST
Astronomical Twilight 5:08 AM CST 6:22 PM CST
Moon 7:20 PM CST (11/9) 9:16 AM CST (11/9)
Length of Visible Light 11h 03m
Length of Day
10h 04m
Waning Gibbous, 91% of the Moon is Illuminated
Nov 9
Waning Gibbous
Nov 14
Last Quarter
Nov 22
New
Nov 29
First Quarter
Dec 6
Full

Hourly Weather History & Observations

Time (CST) Temp. Windchill Dew Point Humidity Pressure Visibility Wind Dir Wind Speed Gust Speed Precip Events Conditions
12:52 AM 33.1 °F 26.1 °F 25.0 °F 72% 29.99 in 10.0 mi WSW 8.1 mph - N/A   Partly Cloudy
1:52 AM 36.0 °F 32.1 °F 26.1 °F 67% 29.96 in 10.0 mi WSW 4.6 mph - N/A   Overcast
2:52 AM 36.0 °F 33.3 °F 27.0 °F 70% 29.95 in 10.0 mi West 3.5 mph - N/A   Overcast
3:52 AM 37.0 °F - 28.0 °F 70% 29.94 in 10.0 mi Calm Calm - N/A   Overcast
4:52 AM 37.0 °F 31.0 °F 27.0 °F 67% 29.93 in 10.0 mi SSW 8.1 mph - N/A   Overcast
5:52 AM 39.0 °F 35.7 °F 28.0 °F 65% 29.92 in 10.0 mi South 4.6 mph - N/A   Overcast
6:52 AM 39.0 °F 35.7 °F 28.0 °F 65% 29.91 in 10.0 mi SSE 4.6 mph - N/A   Overcast
7:52 AM 41.0 °F 34.7 °F 28.0 °F 60% 29.88 in 10.0 mi South 10.4 mph 21.9 mph N/A   Overcast
8:52 AM 43.0 °F 37.7 °F 28.9 °F 58% 29.87 in 10.0 mi SSW 9.2 mph - N/A   Clear
9:52 AM 46.9 °F - 30.0 °F 52% 29.83 in 10.0 mi SSW 12.7 mph - N/A   Clear
10:52 AM 48.9 °F - 30.0 °F 48% 29.81 in 10.0 mi WSW 18.4 mph 24.2 mph N/A   Clear
11:52 AM 53.1 °F - 30.9 °F 43% 29.78 in 10.0 mi WSW 13.8 mph 24.2 mph N/A   Clear
12:52 PM 53.1 °F - 32.0 °F 45% 29.77 in 10.0 mi West 11.5 mph - N/A   Clear
1:52 PM 55.0 °F - 33.1 °F 43% 29.75 in 10.0 mi WSW 10.4 mph - N/A   Clear
2:52 PM 55.9 °F - 34.0 °F 44% 29.75 in 10.0 mi WSW 9.2 mph - N/A   Partly Cloudy
3:52 PM 54.0 °F - 35.1 °F 49% 29.78 in 10.0 mi West 6.9 mph - N/A   Mostly Cloudy
4:52 PM 52.0 °F - 34.0 °F 50% 29.78 in 10.0 mi Calm Calm - N/A   Partly Cloudy
5:52 PM 48.9 °F - 36.0 °F 61% 29.78 in 2.5 mi Calm Calm - N/A   Haze
6:00 PM 48.0 °F - 36.0 °F 63% 29.77 in 10.0 mi Calm Calm - N/A   Overcast
6:52 PM 48.0 °F - 37.0 °F 66% 29.78 in 10.0 mi ENE 4.6 mph - N/A   Overcast
7:52 PM 48.0 °F - 35.1 °F 61% 29.77 in 8.0 mi NE 3.5 mph - N/A   Mostly Cloudy
8:52 PM 46.9 °F - 36.0 °F 66% 29.76 in 10.0 mi Calm Calm - N/A   Mostly Cloudy
9:52 PM 44.1 °F 41.5 °F 36.0 °F 73% 29.77 in 10.0 mi ESE 4.6 mph - N/A   Clear
10:52 PM 44.1 °F 41.5 °F 37.0 °F 76% 29.75 in 10.0 mi East 4.6 mph - N/A   Clear
11:52 PM 42.1 °F 40.2 °F 35.1 °F 76% 29.75 in 10.0 mi East 3.5 mph - N/A   Clear